TimePDT,TemperatureF,Dew PointF,Humidity,Sea Level PressureIn,VisibilityMPH,Wind Direction,Wind SpeedMPH,Gust SpeedMPH,PrecipitationIn,Events,Conditions,WindDirDegrees,DateUTC
12:56 AM,54.9,52.9,93,29.93,5.0,Calm,Calm,-,N/A,,Clear,0,2013-07-05 07:56:00
1:56 AM,54.9,52.9,93,29.91,7.0,Variable,3.5,-,N/A,,Clear,0,2013-07-05 08:56:00
2:56 AM,59.9,52.0,75,29.90,10.0,NNW,9.2,-,N/A,,Clear,340,2013-07-05 09:56:00
3:56 AM,59.9,52.9,78,29.89,10.0,NNW,11.5,-,N/A,,Clear,340,2013-07-05 10:56:00
4:56 AM,63.0,50.9,65,29.89,10.0,North,9.2,-,N/A,,Clear,360,2013-07-05 11:56:00
5:56 AM,63.9,52.0,65,29.89,10.0,NW,6.9,16.1,N/A,,Clear,320,2013-07-05 12:56:00
6:56 AM,63.0,52.0,67,29.90,10.0,NNW,9.2,17.3,N/A,,Clear,330,2013-07-05 13:56:00
7:56 AM,64.9,52.0,63,29.90,10.0,NW,6.9,-,N/A,,Clear,320,2013-07-05 14:56:00
8:56 AM,68.0,50.9,54,29.90,10.0,North,10.4,16.1,N/A,,Clear,360,2013-07-05 15:56:00
9:56 AM,73.9,48.9,41,29.88,10.0,NNW,9.2,18.4,N/A,,Clear,330,2013-07-05 16:56:00
10:56 AM,72.0,52.0,49,29.87,10.0,NNW,11.5,-,N/A,,Clear,330,2013-07-05 17:56:00
11:56 AM,72.9,52.9,49,29.86,10.0,NW,11.5,-,N/A,,Clear,320,2013-07-05 18:56:00
12:56 PM,73.9,52.9,48,29.86,10.0,NNW,11.5,-,N/A,,Clear,330,2013-07-05 19:56:00
1:56 PM,74.8,54.0,48,29.84,10.0,NNW,19.6,23.0,N/A,,Clear,330,2013-07-05 20:56:00
2:56 PM,74.8,54.9,50,29.83,10.0,NNW,15.0,21.9,N/A,,Clear,330,2013-07-05 21:56:00
3:56 PM,75.9,55.9,50,29.81,10.0,NNW,13.8,21.9,N/A,,Clear,330,2013-07-05 22:56:00
4:56 PM,75.9,55.9,50,29.79,10.0,NNW,17.3,24.2,N/A,,Clear,330,2013-07-05 23:56:00
5:56 PM,73.9,54.9,51,29.78,10.0,NNW,17.3,-,N/A,,Clear,340,2013-07-06 00:56:00
6:56 PM,70.9,54.9,57,29.78,10.0,NNW,16.1,-,N/A,,Clear,330,2013-07-06 01:56:00
7:56 PM,68.9,54.9,61,29.78,10.0,NW,11.5,-,N/A,,Clear,320,2013-07-06 02:56:00
8:56 PM,64.9,54.0,68,29.78,10.0,NW,11.5,-,N/A,,Clear,320,2013-07-06 03:56:00
9:56 PM,63.0,52.9,70,29.80,10.0,NW,5.8,-,N/A,,Clear,310,2013-07-06 04:56:00
10:56 PM,63.0,52.0,67,29.81,10.0,Variable,5.8,-,N/A,,Clear,0,2013-07-06 05:56:00
11:56 PM,70.0,50.9,51,29.81,10.0,Variable,6.9,-,N/A,,Clear,0,2013-07-06 06:56:00